Other Public Products
Issued by NWS Charleston, SC

Current Version | Previous Version | Text Only | Print | Product List | Glossary On
Versions: 1 2 3 4 5 6 7 8 9 10 11 12 13 14 15 16 17 18 19 20 21 22 23 24 25 26 27 28 29 30 31 32 33 34 35 36 37 38 39 40 41 42 43 44 45 46 47 48 49 50
000 FPUS82 KCHS 210412 OPUCHS TEST...KCHS/KSAV Gateway Observations...TEST National Weather Service Charleston SC 1100 PM EST MON NOV 20 2017 NOTE: "fair" indicates few or no clouds below 12,000 feet with no significant weather and/or obstructions to visibility. SCZ050-WAZ558-NCZ071-TXZ119-213-PAZ071-DCZ001-FLZ074-172-MI076- NYZ176-178-MAZ016-IL014-TNZ027-NJZ106-GAZ044-MD014-210500- ...Gateway Observations for Charleston International... CITY SKY/WX TMP DP RH WIND PRES REMARKS Chas Airport PTCLDY 45 41 86 NE5 30.23F Seattle PTCLDY 44 38 79 E7 30.02R Charlotte CLOUDY 43 30 60 S8 30.23S Dallas DFW PTCLDY 53 33 46 S6 29.93S Dallas Love PTCLDY 57 33 40 S12 29.95F Philladelphia CLEAR 41 27 57 S8 30.17S Wash National CLOUDY 43 28 55 SW5 30.19S Baltimore MOCLDY 35 24 64 CALM 30.17S Miami LGT RAIN 75 69 81 NE9 30.04S Detroit PTCLDY 40 27 59 S16 29.82F WCI 31 Newark PTCLDY 41 24 51 SW14 30.14R Laguardia PTCLDY 44 25 47 SW14 30.13R J F K CLEAR 42 30 62 SW17 30.15R Boston Logan CLOUDY 41 29 62 SW10 30.07R Ft. Lauderdale CLOUDY 75 68 78 NE14 30.03S Chicago O`Hare CLOUDY 46 30 53 SW24G36 29.71F Chicago Midway CLOUDY 44 31 60 S23G32 29.74F Houston Bush PTCLDY 54 47 77 SE7 30.04F Houston Hobby PTCLDY 56 52 86 E3 30.04S Nashville CLEAR 38 28 67 S3 30.10S Atlanta MOCLDY 46 36 68 E5 30.18S $$ GAZ044-118-TXZ119-213-NCZ071-DCZ001-MDZ014-506-PAZ021-071-NJZ106- NYZ176-178-MAZ106-OHZ011-021-055-MIZ076-KYZ091-ILZ014-INZ047- MNZ060-ONZ431-210500- ...Gateway Observations for Savannah International... CITY SKY/WX TMP DP RH WIND PRES REMARKS Savannah Arpt CLEAR 51 44 77 NE8 30.21S Atlanta MOCLDY 46 36 68 E5 30.18S Charlotte CLOUDY 43 30 60 S8 30.23S Dallas DFW PTCLDY 53 33 46 S6 29.93S Houston Bush PTCLDY 54 47 77 SE7 30.04F Wash National CLOUDY 43 28 55 SW5 30.19S Wash Dulles CLOUDY 36 26 67 S8 30.17S WCI 30 Baltimore MOCLDY 35 24 64 CALM 30.17S Philadelphia CLEAR 41 27 57 S8 30.17S Newark PTCLDY 41 24 51 SW14 30.14R Laguardia PTCLDY 44 25 47 SW14 30.13R J F K CLEAR 42 30 62 SW17 30.15R Boston CLOUDY 41 29 62 SW10 30.07R Pittsburg PTCLDY 37 21 52 S5 30.03S WCI 33 Akron CLOUDY 39 22 50 S16 29.97F WCI 30 Cleveland PTCLDY 41 24 51 S17G25 29.94F Cincinnati CLEAR 37 26 64 S8 29.99F WCI 31 Columbus CLEAR 35 24 65 S7 30.01F WCI 29 Detroit PTCLDY 40 27 59 S16 29.82F WCI 31 Chicago O`Hare CLOUDY 46 30 53 SW24G36 29.71F Minneapolis MOCLDY 43 28 55 W10 29.49R Indianapolis CLEAR 40 24 53 S13 29.92F WCI 32 Toronto Canada CLEAR 41 30 65 SW12G20 29.80F $$

USA.gov is the U.S. government's official web portal to all federal, state and local government web resources and services.